Location: Dillon
(41.1766°N, 107.0923°W)
Time: 20:57:11
(UTC+00:00)

SEEDS - Visible Passes

Search period start: 26 June 2022 00:00
Search period end: 06 July 2022 00:00
Orbit: 580 x 599 km, 97.6° (Epoch: 26 June)

Date Brightness Start Highest point End Pass type
(mag) Time Alt. Az. Time Alt. Az. Time Alt. Az.
26 Jun ? 10:46:40 10° NE 10:50:20 30° E 10:53:57 10° SSE visible
27 Jun ? 10:54:22 10° NNE 10:58:12 36° E 11:02:00 10° SSE visible
28 Jun ? 11:02:05 10° NNE 11:06:04 45° E 11:10:01 10° S visible
03 Jul ? 10:08:22 10° ENE 10:09:17 11° E 10:10:11 10° ESE visible
04 Jul ? 10:15:11 10° ENE 10:17:11 13° E 10:19:10 10° ESE visible
05 Jul ? 10:22:27 10° NE 10:25:03 16° E 10:27:39 10° SE visible
